www.pogodaiklimat.ru

Погода и климат >> Архив погоды >> Пакистан >> Навабшах


ПОГОДА в Навабшахе

  • Прогноз погоды в Навабшахе
  • Монитор погоды в Навабшахе

АРХИВ ПОГОДЫ в Навабшахе

Время (UTC), дата Ветер
(напр.,м/с)
 
Видим.   Явления Облачность Т
(С)
Тd
(С)
f
(%)
Тe
(С)
Тes
(С)
Комфортность P
(гПа)
Po
(гПа)
Тmin
(С)
Tmax
(С)
R
(мм)
R24
(мм)
S
(см)
18 14.05 Ю 2 4000 м мгла 8/4 1200 м
[Sc Ac trans]
+32.0 +20.0 49 +38 +38 очень
душно
1002.6 999.4
21 14.05 ЮВ 3 4000 м мгла 6/3 1200 м
[Sc Ac trans]
+29.0 +19.9 58 +35 +35 очень
душно
1001.6 997.3
00 15.05 Ю 1 4000 м мгла 4/0
[Ac trans]
+27.5 +19.0 60 +33 +33 очень
душно
1000.6 997.4
03 15.05 СЗ 1 2000 м мгла 3/0
[Ci fib]
+28.5 +20.2 61 +35 +41 очень
душно
1005.0 1001.7 +26.5
06 15.05 ЮЗ 2 4000 м мгла ясно +37.0 +21.0 40 +44 +65 опасность
перегрева
1010.1 1003.5
09 15.05 ЮЗ 4 4000 м мгла ясно +42.5 +20.9 29 +48 +61 опасность
перегрева
1004.5 1000.4
12 15.05 ЮВ 3 4000 м мгла 4/4 900 м
[Sc]
+40.0 +21.3 34 +47 +49 опасность
перегрева
1001.8 998.6 +43.5
15 15.05 ЮВ 2 4000 м мгла 6/3 1050 м
[Sc Ac trans]
+35.0 +22.0 47 +44 +44 опасность
перегрева
1002.7 1000.0
18 15.05 Ю 2 4000 м мгла 5/3 1050 м
[Sc Ac trans]
+32.0 +20.9 52 +39 +39 очень
душно
1004.7 1001.4
21 15.05 Ю 3 4000 м 6/3 1050 м
[Sc]
+20.5 +8.4 46 +22 +22 комфорт 1003.8 848.2
00 16.05 ЮВ 2 4000 м мгла ясно +27.0 +21.0 70 +34 +34 очень
душно
1002.8 999.5
03 16.05 ЮЗ 2 4000 м мгла ясно +30.0 +21.1 59 +38 +43 очень
душно
1005.0 1001.7 +26.5
06 16.05 С 1 4000 м ясно +35.0 +21.1 44 +42 +65 опасность
перегрева
1007.9 1004.6
09 16.05 Ю 2 4000 м ясно +38.5 +21.1 37 +45 +66 опасность
перегрева
1006.6 1000.0
12 16.05 З 8 1000 м гроза, пыльная буря 9/6 750 м
[Cb cap Ac trans]
+36.0 +21.5 43 +44 +44 опасность
перегрева
1004.7 1001.5 +40.1
15 16.05 штиль 0 4000 м дым {гроза, дождь} 9/5 1050 м
[Sc Ac trans]
+25.0 +21.3 80 +32 +32 очень
душно
1007.5 1000.0 3
18 16.05 С 1 4000 м 6/3 1050 м
[Sc Ac trans]
+25.0 +19.6 72 +30 +30 душно 1008.4 1005.1
21 16.05 штиль 0 4000 м 3/0
[Ac trans]
+23.5 +19.6 79 +29 +29 душно 1007.1 1002.7
00 17.05 ЮВ 2 4000 м ясно +22.5 +18.6 79 +28 +28 душно 1005.9 1002.5
03 17.05 ЮВ 2 2000 м дым 9/4 1050 м
[Sc Ac trans]
+24.0 +20.2 79 +30 +31 очень
душно
1008.1 1004.7 +22.0
06 17.05 СЗ 2 4000 м 5/1 1050 м
[Sc Ac trans]
+31.0 +22.3 60 +40 +51 опасность
солнечного
удара
1008.8 1005.5
09 17.05 З 2 4000 м 8/4 1050 м
[Sc Ac trans]
+35.5 +21.7 45 +44 +51 опасность
перегрева
1007.7 1000.0 0.1
12 17.05 С 1 4000 м ясно +36.5 +22.1 43 +45 +50 опасность
перегрева
1004.7 1001.5 +37.5 0.2
15 17.05 Ю 2 4000 м 3/0
[Ac trans]
+32.5 +22.4 55 +42 +42 опасность
перегрева
1005.4 1000.0
18 17.05 Ю 2 4000 м ясно +29.0 +21.6 64 +37 +37 очень
душно
1006.7 1003.4
21 17.05 штиль 0 4000 м ясно +27.0 +21.0 70 +34 +34 очень
душно
1005.7 1000.0
00 18.05 штиль 0 4000 м ясно +25.5 +21.0 76 +32 +32 очень
душно
1004.8 1001.5
03 18.05 штиль 0 4000 м ясно +27.5 +21.6 70 +35 +42 очень
душно
1006.3 1003.0 +24.1
06 18.05 ЮВ 3 4000 м 3/0
[Ci fib]
+37.0 +20.0 37 +43 +58 опасность
перегрева
1007.9 1004.7
09 18.05 ЮВ 2 4000 м 3/0
[Ci fib]
+41.5 +20.5 30 +47 +66 опасность
перегрева
1006.1 1000.0
12 18.05 Ю 2 4000 м 5/3 1050 м
[Sc Ci fib]
+41.0 +19.8 30 +46 +50 опасность
перегрева
1004.1 1001.0 +42.5
15 18.05 ЮВ 2 4000 м мгла 9/4 1050 м
[Sc Ac trans]
+35.0 +21.1 44 +42 +42 опасность
перегрева
1005.1 1000.0
18 18.05 ЮЗ 1 4000 м мгла 9/4 1050 м
[Sc Ac trans]
+30.0 +19.4 53 +36 +36 очень
душно
1007.1 1003.8
21 18.05 Ю 1 4000 м мгла 8/4 1050 м
[Sc Ac trans]
+27.5 +19.0 60 +33 +33 очень
душно
1006.1 1000.0
00 19.05 штиль 0 4000 м мгла 5/1 1050 м
[Sc Ac trans]
+26.0 +19.1 66 +31 +31 очень
душно
1004.8 1001.5
03 19.05 ЮВ 1 4000 м мгла 4/0
[Ac trans]
+28.0 +20.5 64 +35 +39 очень
душно
1005.7 1002.4 +24.5
06 19.05 Ю 2 4000 м 4/0
[Ac trans]
+37.0 +22.8 44 +46 +62 опасность
перегрева
1006.9 1003.7
09 19.05 ЮВ 2 4000 м 5/0
[Ac trans]
+41.0 +20.7 31 +47 +61 опасность
перегрева
1005.4 1000.0
12 19.05 ЮВ 4 4000 м 4/0
[Ac trans]
+41.0 +19.8 30 +46 +49 опасность
перегрева
1002.6 999.6 +42.0
15 19.05 ЮЗ 4 4000 м мгла 8/4 1050 м
[Sc Ac trans]
+35.5 +21.7 45 +44 +44 опасность
перегрева
1004.5 1000.0
18 19.05 Ю 3 4000 м мгла 6/3 1050 м
[Sc Ac trans]
+30.0 +20.3 56 +37 +37 очень
душно
1006.9 1003.6
21 19.05 ЮВ 2 4000 м мгла 5/3 1050 м
[Sc Ac trans]
+27.0 +19.3 63 +33 +33 очень
душно
1006.0 1000.0
00 20.05 ЮВ 1 4000 м мгла 5/3 1050 м
[Sc Ac trans]
+25.0 +19.6 72 +30 +30 душно 1005.1 1001.8
03 20.05 ЮВ 2 4000 м мгла 4/0
[Ac trans]
+29.5 +22.2 65 +38 +42 очень
душно
1006.7 1003.4 +24.5
06 20.05 В 2 4000 м 4/0
[Ci fib]
+38.5 +22.0 39 +47 +66 опасность
перегрева
1008.1 1004.9
09 20.05 СЗ 2 4000 м 4/0
[Ci fib]
+41.5 +21.4 32 +48 +67 опасность
перегрева
1006.4 1000.0
12 20.05 ЮЗ 3 4000 м 4/0
[Ac trans]
+40.5 +21.0 33 +47 +50 опасность
перегрева
1004.6 1001.5 +42.5
15 20.05 ЮВ 2 4000 м мгла 8/4 1050 м
[Sc Ac trans]
+37.5 +20.7 38 +44 +44 опасность
перегрева
1005.8 1000.0
18 20.05 С 2 4000 м мгла 9/4 1050 м
[Sc Ac trans]
+34.5 +21.4 47 +42 +42 опасность
перегрева
1006.5 1003.2
21 20.05 ЮВ 1 4000 м мгла 8/4 1050 м
[Sc Ac trans]
+31.5 +21.2 54 +39 +39 очень
душно
1005.8 1000.0
00 21.05 ЮВ 2 4000 м мгла 5/3 1050 м
[Sc Ac trans]
+29.5 +20.5 58 +36 +36 очень
душно
1004.9 1001.6
03 21.05 СЗ 1 4000 м мгла 5/0
[Ac trans]
+31.0 +22.3 60 +40 +45 очень
душно
1006.8 1003.5 +27.1
06 21.05 СЗ 1 4000 м ясно +37.0 +21.0 40 +44 +67 опасность
перегрева
1008.2 1005.0
09 21.05 СЗ 2 4000 м 4/0
[Ci fib]
+41.5 +21.4 32 +48 +67 опасность
перегрева
1006.3 1000.0
12 21.05 Ю 2 4000 м мгла 5/3 1050 м
[Sc Ac trans]
+42.5 +21.9 31 +50 +53 опасность
перегрева
1003.8 1000.7 +44.1
15 21.05 ЮВ 2 4000 м мгла 8/3 1050 м
[Sc Ac trans]
+40.0 +21.3 34 +47 +47 опасность
перегрева
1004.8 1000.0

 

Местоположение метеостанции Навабшах (Пакистан): широта 26.25 долгота 68.37 высота над уровнем моря 38 м.

В архиве по умолчанию представлена погода в Навабшахе за последнюю неделю. Архивные данные за месяц целиком и за предыдущие месяцы, начиная с января 2011 года, Вы можете получить, выбрав интересующий диапазон дат из раскрывающегося списка и нажав кнопку "Ввод!".


*Определитесь, кто Вы:
робот инопланетянин человек

Внимание! Время в таблицах - всемирное. Для получения местного времени необходимо прибавить поправку, которая равна 5 ч.

Смотрите также архив погоды в соседних городах и на ближайших метеорологических станциях:

Погода в Пад Идан (Пакистан) (71 км)
Погода в Хайдарабате (Пакистан) (97 км)
Погода в Мир Пур Кхас (Пакистан) (100 км)
Погода в Мохенджо-Даро (Пакистан) (121 км)
Погода в Сакранде (Пакистан) (125 км)
Погода в Ларкане (Пакистан) (146 км)
Погода в Чоре (Пакистан) (163 км)
Погода в Рохри (Пакистан) (166 км)
Погода в Суккуре (Пакистан) (167 км)
Погода в Даду (Пакистан) (170 км)

Пояснения к столбцам:

Ветер - указаны скорость ветра в м/с - средняя за 10 мин, порывы в срок и между сроками (в фигурных скобках) и направление, откуда дует ветер: С - северный, СВ - северо-восточный, В - восточный, ЮВ - юго-восточный, Ю - южный, ЮЗ - юго-западный, З - западный, СЗ - северо-западный.
Видимость - горизонтальная дальность видимости в метрах или километрах. При видимости от 1 до 10 км при отсутствии осадков обычно наблюдается дымка, при ухудшении видимости до 1 км и менее - туман. В сухую погоду видимость может ухудшаться дымом, пылью или мглою.
Явления - указаны атмосферные явления, наблюдавшиеся в срок или в последний час перед сроком; фигурными скобками обозначены явления, наблюдавшиеся между сроками (за 1-3 часа до срока); квадратными скобками обозначены град или гололедные отложения с указанием их диаметра в мм.
Облачность - указаны через наклонную черту общая и нижняя облачность в баллах и высота нижней границы облаков в метрах; квадратными скобками обозначены формы облаков: Ci - перистые, Cs - перисто-слоистые, Cc - перисто-кучевые, Ac - высококучевые, As - высокослоистые, Sc - слоисто-кучевые, Ns - слоисто-дождевые, Cu - кучевые, Cb - кучево-дождевые. Подробнее классификацию облаков см. в Атласе облаков (PDF).
T - Температура воздуха - температура, измеренная на высоте 2 м над землей.
Td - Температура точки росы - температура, при понижении до которой содержащийся в воздухе водяной пар достигнет насыщения.
f - Относительная влажность воздуха - влажноcть воздуха, измеренная на высоте 2 м над землей.
Te - Эффективная температура - температура, которую ощущает одетый по сезону человек в тени. Характеристика душности погоды. При расчете учитывается влияние влажности воздуха и скорости ветра на теплоощущения человека.
Tes - Эффективная температура на солнце - температура, которую ощущает человек, с поправкой на солнечный нагрев. Характеристика знойности погоды. Зависит от высоты солнца над горизонтом, облачности и скорости ветра. Ночью, в пасмурную погоду, а также при ветре 12 м/с и более поправка равна нулю.
P - Атмосферное давление - приведенное к уровню моря атмосферное давление.
Po - Атмосферное давление - измеренное на уровне метеостанции атмосферное давление.
Tmin - Минимальная температура - минимум температуры воздуха на высоте 2 м над землей.
Tmax - Максимальная температура - максимум температуры воздуха на высоте 2 м над землей.
R - Количество осадков - Количество выпавших осадков за период времени, мм. При наведении курсора мыши на число - период времени, за который выпало указанное количество осадков.
R24 - Количество осадков - Количество выпавших осадков за 24 часа, мм.
S - Снежный покров - Высота снежного покрова, см. При наведении курсора мыши на число - состояние снежного покрова и степень покрытия местности в баллах.